Regional Weather Roundup
Issued by NWS

Home | Current Version | Previous Version | Text Only | Print | Product List | Glossary Off
Versions: 1 2 3 4 5 6 7 8 9 10 11 12 13 14 15 16 17 18 19 20 21 22 23 24 25 26 27 28 29 30 31 32 33 34 35 36 37 38 39 40 41 42 43 44 45 46 47 48 49 50

000
ASUS43 KIND 290509
RWRIN

WEATHER ROUNDUP FOR INDIANA
NATIONAL WEATHER SERVICE INDIANAPOLIS IN
100 AM EDT FRI MAY 29 2015

NOTE: "FAIR" INDICATES FEW OR NO CLOUDS BELOW 12,000 FEET WITH NO
SIGNIFICANT WEATHER AND/OR OBSTRUCTIONS TO VISIBILITY.

* - STATION DOES NOT REPORT WEATHER SUCH AS PRECIPITATION OR FOG.

+ - STATION NOT QUALITY CONTROLLED BY THE NATIONAL WEATHER SERVICE.
    USE DATA WITH CAUTION...ESPECIALLY DEWPOINT AND RELATIVE
    HUMIDITY OBSERVATIONS.

INZ001>003-010>013-019-020-290600-
NORTHWEST INDIANA

CITY           SKY/WX    TMP DP  RH WIND       PRES   REMARKS
GARY /AIRPORT/ CLEAR     71  59  66 SE6       30.07S
KNOX *+        PTCLDY    68  57  68 SE8       30.09S
LA PORTE +     PTCLDY    71  59  65 SE6       30.10S
MICHIGAN CITY+ PTCLDY    70  55  60 SE5       30.09S
MONTICELLO +   PTCLDY    72  63  73 S6        30.08F
RENSSELAER +   PTCLDY    72  61  68 S3        30.09S
VALPARAISO     PTCLDY    69  58  67 E8        30.09S

$$

LMZ046-743>745-290600-
SOUTHERN LAKE MICHIGAN

STATION/POSITION TIME  TEMP    WIND        PRES    WAVE
                       AIR SEA DIR/SP/G            HT
                 (UTC) (F)     (DEG/KT/KT) (MB)    (FT)
BURNS HARBOR     0500   74     120/ 12/ 17 1018.6F
MICHIGAN CITY    0500   73     110/ 10/ 14   N/A
5NW MICH CITY    0500   66 56  150/ 10/ 10   N/A     1

$$

INZ004-005-014>016-021>024-290600-
NORTH CENTRAL INDIANA

CITY           SKY/WX    TMP DP  RH WIND       PRES   REMARKS
GOSHEN         CLEAR     68  57  68 SE10      30.12F
LOGANSPORT +   PTCLDY    66  55  68 S6        30.11S
PERU/GRISSOM   PTCLDY    70  63  78 S7        30.10F
ROCHESTER +    PTCLDY    70  61  73 SE5       30.11F
SOUTH BEND     PTCLDY    71  56  58 SE13      30.10F
WARSAW +       PTCLDY    68  59  73 SE9       30.12F

$$

INZ006>009-017-018-025>027-290600-
NORTHEAST INDIANA

CITY           SKY/WX    TMP DP  RH WIND       PRES   REMARKS
ANGOLA *+      CLEAR     64  55  72 SE8       30.15F
AUBURN +       CLEAR     63  55  77 E6        30.15F
FORT WAYNE     MOCLDY    65  61  87 E7        30.14F
HUNTINGTON +   PTCLDY    66  61  83 E3        30.13F

$$

INZ028-029-035-036-043>045-051>053-290600-
WEST CENTRAL INDIANA

CITY           SKY/WX    TMP DP  RH WIND       PRES   REMARKS
CRAWFORDSVL +  CLEAR     68  58  71 SE8       30.11S
GREENCASTLE +  CLEAR     66  59  77 S8        30.12S
LAFAYETTE      CLEAR     70  62  76 CALM      30.09S
TERRE HAUTE    PTCLDY    72  65  78 SE7       30.10S

$$

INZ030>032-037>040-046>048-054>057-064-065-290600-
CENTRAL INDIANA

CITY           SKY/WX    TMP DP  RH WIND       PRES   REMARKS
CP ATTERBURY + CLEAR     63  61  94 CALM      30.13F FOG
FISHERS *+     PTCLDY    68  64  88 S7        30.12F
FRANKFORT +    CLEAR     69  62  78 CALM      30.13S
GREENWOOD *+   CLEAR     70  61  73 SE7       30.14F
INDIANAPOLIS   PTCLDY    70  62  76 SE8       30.10F
-EAGLE CREEK   CLEAR     72  63  73 S6        30.11F
KOKOMO *+      PTCLDY    70  61  73 S7        30.11F
MARION +       MOCLDY    69  60  73 SE3       30.13F
MT COMFORT *+  PTCLDY    70  57  64 S5        30.13F
SHELBYVILLE    PTCLDY    71  63  75 S7        30.12F
ZIONSVILLE +   PTCLDY    71  61  70 S6        30.13S

$$

INZ033-034-041-042-049-050-058-059-290600-
EAST CENTRAL INDIANA

CITY           SKY/WX    TMP DP  RH WIND       PRES   REMARKS
MUNCIE         PTCLDY    71  62  73 S5        30.14F

$$

INZ060-061-067>069-081>083-085>088-290600-
SOUTHWEST INDIANA

CITY           SKY/WX    TMP DP  RH WIND       PRES   REMARKS
EVANSVILLE     CLEAR     73  65  75 SE5       30.09F
HUNTINGBURG *+ CLEAR     68  63  83 SE7       30.11F
WASHINGTON +   CLEAR     70  64  82 SE6       30.10F

$$

INZ062-063-066-070>080-084-089>092-290600-
SOUTH CENTRAL AND SOUTHEAST INDIANA

CITY           SKY/WX    TMP DP  RH WIND       PRES   REMARKS
BLOOMINGTON    CLEAR     69  64  84 SE5       30.12F
MADISON *+     PTCLDY    68  63  83 SE3       30.16F
SEYMOUR +      CLEAR     70  64  83 SE6       30.12F

$$



USA.gov is the U.S. government's official web portal to all federal, state and local government web resources and services.